www.pogodaiklimat.ru

Погода и климат >> Архив погоды >> Казахстан >> Секисовка


ПОГОДА в Секисовке

  • Прогноз погоды в Секисовке
  • Монитор погоды в Секисовке
  • Климат города

АРХИВ ПОГОДЫ в Секисовке

Время (UTC), дата Ветер
(напр.,м/с)
 
Видим.   Явления Облачность Т
(С)
Тd
(С)
f
(%)
Тe
(С)
Тes
(С)
Комфортность P
(гПа)
Po
(гПа)
Тmin
(С)
Tmax
(С)
R
(мм)
R24
(мм)
S
(см)
21 19.06 штиль 0 7000 м н/о +13.0 +13.0 100 +12 +12 1005.8 955.4
00 20.06 штиль 0 9000 м н/о +16.0 +16.0 100 +16 +16 1005.3 955.5
03 20.06 СЗ 1 10 км н/о +24.2 +18.2 69 +29 +29 душно 1002.9 954.6 7
06 20.06 С 2 13 км н/о +31.8 +11.6 29 +32 +32 жарко 1000.1 953.0
09 20.06 С 2 12 км н/о +33.2 +7.3 20 +31 +31 жарко 998.2 951.4
12 20.06 СЗ 4 12 км н/о +27.0 +17.5 56 +31 +31 душно 999.7 952.0
15 20.06 ЮВ 1 13 км н/о +20.4 +17.8 85 +25 +25 комфорт 1001.6 952.8 +33.5
18 20.06 С 1 11 км н/о +19.6 +18.6 94 +23 +23 комфорт 1001.9 953.0 +33.5
21 20.06 Ю 1 12 км н/о +19.3 +19.3 100 +23 +23 комфорт 1002.7 953.7
00 21.06 ЮВ 1 11 км н/о +18.0 +18.0 100 +19 +19 1003.3 954.0
03 21.06 СВ 1 12 км н/о +23.1 +19.7 81 +30 +30 очень
душно
1003.3 954.9 11
06 21.06 ЮЗ 1 14 км н/о +28.1 +16.7 50 +32 +32 душно 1001.9 954.3 0.1
09 21.06 Ю 2 16 км н/о +30.9 +13.3 34 +32 +32 жарко 1000.6 953.4
12 21.06 Ю 1 14 км н/о +30.8 +16.1 41 +34 +34 очень
душно
1000.4 953.2
15 21.06 ЮЗ 3 11 км н/о +25.8 +15.8 54 +29 +29 душно 1002.5 954.5 +31.5
21 21.06 Ю 1 9000 м н/о +14.6 +14.6 100 +15 +15 1004.7 954.7
00 22.06 штиль 0 14 км н/о +18.0 +18.0 100 +18 +18 1003.7 954.4
03 22.06 С 3 14 км н/о +23.0 +22.2 95 +31 +31 очень
душно
1002.4 954.1 11
09 22.06 ЮВ 4 20 км н/о +28.8 +16.4 47 +32 +32 душно 1000.8 953.3
12 22.06 ЮВ 3 20 км н/о +26.4 +13.5 45 +28 +28 жарко 1001.7 953.7
15 22.06 Ю 1 19 км н/о +20.6 +17.2 81 +25 +25 комфорт 1003.6 954.7 +28.8
18 22.06 СВ 1 16 км н/о +15.7 +15.7 100 +16 +16 1005.1 955.3 +28.8 0.8
21 22.06 Ю 1 12 км н/о +12.8 +12.8 100 +13 +13 1005.6 955.2
00 23.06 штиль 0 11 км н/о +15.1 +15.1 100 +15 +15 1005.8 955.8
03 23.06 СЗ 1 15 км н/о +22.7 +18.9 79 +29 +29 очень
душно
1004.0 955.5 10
06 23.06 С 2 19 км н/о +29.8 +15.2 41 +32 +32 душно 1001.6 954.2
09 23.06 Ю 3 20 км н/о +33.0 +13.2 30 +34 +34 очень
жарко
999.8 952.9
12 23.06 Ю 8 19 км н/о +24.7 +13.6 50 +27 +27 жарко 1003.3 955.0
15 23.06 Ю 1 20 км н/о +22.4 +13.2 56 +25 +25 комфорт 1002.8 954.2 +33.0
18 23.06 штиль 0 19 км н/о +18.4 +17.6 95 +19 +19 1002.7 953.5 +33.0

 

Местоположение метеостанции Секисовка (Восточно-Казахстанская область, Казахстан): широта 50.33 долгота 82.59 высота над уровнем моря 455 м.

В архиве по умолчанию представлена погода в Секисовке за последнюю неделю. Архивные данные за месяц целиком и за предыдущие месяцы, начиная с января 2011 года, Вы можете получить, выбрав интересующий диапазон дат из раскрывающегося списка и нажав кнопку "Ввод!".

Внимание! Время в таблицах - всемирное. Для получения местного времени необходимо прибавить поправку, которая в Секисовке равна 5 ч.

Смотрите также архив погоды в соседних городах и на ближайших метеорологических станциях:

Погода в Белоусовке (Восточно-Казахстанская область, Казахстан) (22 км)
Погода в Глубоком (Восточно-Казахстанская область, Казахстан) (28 км)
Погода в Оскемен Согре (Восточно-Казахстанская область, Казахстан) (37 км)
Погода в Усть-Каменогорске (Восточно-Казахстанская область, Казахстан) (40 км)
Погода в Таврии (Восточно-Казахстанская область, Казахстан) (42 км)
Погода в Первомайском (Восточно-Казахстанская область, Казахстан) (42 км)
Погода в Кайсенова (Восточно-Казахстанская область, Казахстан) (51 км)
Погода в Шемонаихе (Восточно-Казахстанская область, Казахстан) (58 км)
Погода в Риддере (Восточно-Казахстанская область, Казахстан) (68 км)
Погода в Змеиногорске (Алтайский край, Россия) (96 км)

Пояснения к столбцам:

Ветер - указаны скорость ветра в м/с - средняя за 10 мин, порывы в срок и между сроками (в фигурных скобках) и направление, откуда дует ветер: С - северный, СВ - северо-восточный, В - восточный, ЮВ - юго-восточный, Ю - южный, ЮЗ - юго-западный, З - западный, СЗ - северо-западный.
Видимость - горизонтальная дальность видимости в метрах или километрах. При видимости от 1 до 10 км при отсутствии осадков обычно наблюдается дымка, при ухудшении видимости до 1 км и менее - туман. В сухую погоду видимость может ухудшаться дымом, пылью или мглою.
Явления - указаны атмосферные явления, наблюдавшиеся в срок или в последний час перед сроком; фигурными скобками обозначены явления, наблюдавшиеся между сроками (за 1-3 часа до срока); квадратными скобками обозначены град или гололедные отложения с указанием их диаметра в мм.
Облачность - указаны через наклонную черту общая и нижняя облачность в баллах и высота нижней границы облаков в метрах; квадратными скобками обозначены формы облаков: Ci - перистые, Cs - перисто-слоистые, Cc - перисто-кучевые, Ac - высококучевые, As - высокослоистые, Sc - слоисто-кучевые, Ns - слоисто-дождевые, Cu - кучевые, Cb - кучево-дождевые. Подробнее классификацию облаков см. в Атласе облаков (PDF).
T - Температура воздуха - температура, измеренная на высоте 2 м над землей.
Td - Температура точки росы - температура, при понижении до которой содержащийся в воздухе водяной пар достигнет насыщения.
f - Относительная влажность воздуха - влажноcть воздуха, измеренная на высоте 2 м над землей.
Te - Эффективная температура - температура, которую ощущает одетый по сезону человек в тени. Характеристика душности погоды. При расчете учитывается влияние влажности воздуха и скорости ветра на теплоощущения человека.
Tes - Эффективная температура на солнце - температура, которую ощущает человек, с поправкой на солнечный нагрев. Характеристика знойности погоды. Зависит от высоты солнца над горизонтом, облачности и скорости ветра. Ночью, в пасмурную погоду, а также при ветре 12 м/с и более поправка равна нулю.
P - Атмосферное давление - приведенное к уровню моря атмосферное давление.
Po - Атмосферное давление - измеренное на уровне метеостанции атмосферное давление.
Tmin - Минимальная температура - минимум температуры воздуха на высоте 2 м над землей.
Tmax - Максимальная температура - максимум температуры воздуха на высоте 2 м над землей.
R - Количество осадков - Количество выпавших осадков за период времени, мм. При наведении курсора мыши на число - период времени, за который выпало указанное количество осадков.
R24 - Количество осадков - Количество выпавших осадков за 24 часа, мм.
S - Снежный покров - Высота снежного покрова, см. При наведении курсора мыши на число - состояние снежного покрова и степень покрытия местности в баллах.